Time,TemperatureF,DewpointF,PressureIn,WindDirection,WindDirectionDegrees,WindSpeedMPH,WindSpeedGustMPH,Humidity,HourlyPrecipIn,Conditions,Clouds,dailyrainin,SolarRadiationWatts/m^2,SoftwareType,DateUTC
2013-08-08 00:06:00,64.1,57.0,30.13,SSE,155,0.0,-999.0,78,-99.99,,,0.00,0,weatherlink.com 1.10,2013-08-08 04:06:00,
2013-08-08 00:21:00,64.0,57.0,30.12,SSE,166,5.0,-999.0,78,-99.99,,,0.00,0,weatherlink.com 1.10,2013-08-08 04:21:00,
2013-08-08 00:36:00,64.0,56.0,30.12,South,169,0.0,-999.0,76,-99.99,,,0.00,0,weatherlink.com 1.10,2013-08-08 04:36:00,
2013-08-08 00:51:00,64.3,56.0,30.11,SSE,167,0.0,-999.0,75,-99.99,,,0.00,0,weatherlink.com 1.10,2013-08-08 04:51:00,
2013-08-08 01:06:00,64.6,57.0,30.10,SSE,165,0.0,-999.0,75,-99.99,,,0.00,0,weatherlink.com 1.10,2013-08-08 05:06:00,
2013-08-08 01:21:00,64.8,57.0,30.10,SSE,157,0.0,-999.0,75,-99.99,,,0.00,0,weatherlink.com 1.10,2013-08-08 05:21:00,
2013-08-08 01:36:00,64.9,57.0,30.10,SSE,155,2.0,-999.0,75,-99.99,,,0.00,0,weatherlink.com 1.10,2013-08-08 05:36:00,
2013-08-08 01:51:00,64.9,57.0,30.09,SE,140,0.0,-999.0,76,-99.99,,,0.00,0,weatherlink.com 1.10,2013-08-08 05:51:00,
2013-08-08 02:06:00,64.8,57.0,30.10,SE,140,0.0,-999.0,77,-99.99,,,0.00,0,weatherlink.com 1.10,2013-08-08 06:06:00,
2013-08-08 02:21:00,64.7,58.0,30.09,SE,140,0.0,-999.0,78,-99.99,,,0.00,0,weatherlink.com 1.10,2013-08-08 06:21:00,
2013-08-08 02:36:00,64.4,58.0,30.09,SE,140,0.0,-999.0,79,-99.99,,,0.00,0,weatherlink.com 1.10,2013-08-08 06:36:00,
2013-08-08 02:51:00,64.3,58.0,30.09,SE,140,0.0,-999.0,81,-99.99,,,0.00,0,weatherlink.com 1.10,2013-08-08 06:51:00,
2013-08-08 03:06:00,64.4,60.0,30.08,South,172,0.0,-999.0,84,-99.99,,,0.00,0,weatherlink.com 1.10,2013-08-08 07:06:00,
2013-08-08 03:21:00,64.7,60.0,30.08,SSE,163,0.0,-999.0,85,-99.99,,,0.00,0,weatherlink.com 1.10,2013-08-08 07:21:00,
2013-08-08 03:36:00,65.0,60.0,30.07,South,171,0.0,-999.0,85,-99.99,,,0.00,0,weatherlink.com 1.10,2013-08-08 07:36:00,
2013-08-08 03:51:00,65.3,61.0,30.07,SSE,165,0.0,-999.0,86,-99.99,,,0.00,0,weatherlink.com 1.10,2013-08-08 07:51:00,
2013-08-08 04:06:00,65.4,61.0,30.08,SSE,164,0.0,-999.0,86,-99.99,,,0.00,0,weatherlink.com 1.10,2013-08-08 08:06:00,
2013-08-08 04:22:00,65.6,62.0,30.07,SSE,164,0.0,-999.0,87,-99.99,,,0.00,0,weatherlink.com 1.10,2013-08-08 08:22:00,
2013-08-08 04:37:00,65.8,62.0,30.07,South,170,0.0,-999.0,87,-99.99,,,0.00,0,weatherlink.com 1.10,2013-08-08 08:37:00,
2013-08-08 04:52:00,66.1,63.0,30.06,South,169,0.0,-999.0,88,-99.99,,,0.00,0,weatherlink.com 1.10,2013-08-08 08:52:00,
2013-08-08 05:07:00,66.3,63.0,30.07,SSE,163,0.0,-999.0,88,-99.99,,,0.00,0,weatherlink.com 1.10,2013-08-08 09:07:00,
2013-08-08 05:22:00,66.3,63.0,30.07,SSE,164,0.0,-999.0,88,-99.99,,,0.00,0,weatherlink.com 1.10,2013-08-08 09:22:00,
2013-08-08 05:36:00,66.3,63.0,30.06,SSE,167,0.0,-999.0,88,-99.99,,,0.00,0,weatherlink.com 1.10,2013-08-08 09:36:00,
2013-08-08 05:52:00,66.3,63.0,30.06,SSE,167,0.0,-999.0,89,-99.99,,,0.00,0,weatherlink.com 1.10,2013-08-08 09:52:00,
2013-08-08 06:07:00,66.4,63.0,30.06,SSE,157,2.0,-999.0,89,-99.99,,,0.00,0,weatherlink.com 1.10,2013-08-08 10:07:00,
2013-08-08 06:22:00,66.5,63.0,30.06,SSE,163,0.0,-999.0,89,-99.99,,,0.00,9,weatherlink.com 1.10,2013-08-08 10:22:00,
2013-08-08 06:37:00,66.7,64.0,30.06,SSE,167,2.0,-999.0,90,-99.99,,,0.00,25,weatherlink.com 1.10,2013-08-08 10:37:00,
2013-08-08 06:52:00,67.0,64.0,30.07,SSE,162,4.0,-999.0,90,-99.99,,,0.00,19,weatherlink.com 1.10,2013-08-08 10:52:00,
2013-08-08 07:07:00,67.4,65.0,30.07,SSE,161,6.0,-999.0,90,-99.99,,,0.00,14,weatherlink.com 1.10,2013-08-08 11:07:00,
2013-08-08 07:22:00,67.7,64.0,30.07,South,169,0.0,-999.0,89,-99.99,,,0.00,44,weatherlink.com 1.10,2013-08-08 11:22:00,
2013-08-08 07:37:00,68.0,65.0,30.08,SSE,168,0.0,-999.0,89,-99.99,,,0.00,23,weatherlink.com 1.10,2013-08-08 11:37:00,
2013-08-08 07:52:00,67.8,65.0,30.08,SSE,157,0.0,-999.0,90,-99.99,,,0.00,21,weatherlink.com 1.10,2013-08-08 11:52:00,
2013-08-08 08:07:00,67.5,65.0,30.08,SSE,150,2.0,-999.0,91,-99.99,,,0.00,54,weatherlink.com 1.10,2013-08-08 12:07:00,
2013-08-08 08:23:00,67.3,65.0,30.07,South,175,0.0,-999.0,93,-99.99,,,0.00,104,weatherlink.com 1.10,2013-08-08 12:23:00,
2013-08-08 08:38:00,67.5,66.0,30.07,SE,128,0.0,-999.0,94,-99.99,,,0.00,86,weatherlink.com 1.10,2013-08-08 12:38:00,
2013-08-08 08:53:00,67.5,66.0,30.06,South,174,4.0,-999.0,94,-99.99,,,0.00,156,weatherlink.com 1.10,2013-08-08 12:53:00,
2013-08-08 09:08:00,68.0,66.0,30.06,SSE,159,0.0,-999.0,94,-99.99,,,0.00,199,weatherlink.com 1.10,2013-08-08 13:08:00,
2013-08-08 09:23:00,68.5,67.0,30.06,SSE,166,1.0,-999.0,95,-99.99,,,0.00,265,weatherlink.com 1.10,2013-08-08 13:23:00,
2013-08-08 09:38:00,69.4,68.0,30.06,SE,146,0.0,-999.0,95,-99.99,,,0.00,213,weatherlink.com 1.10,2013-08-08 13:38:00,
2013-08-08 09:52:00,70.8,69.0,30.06,South,182,5.0,-999.0,94,-99.99,,,0.00,357,weatherlink.com 1.10,2013-08-08 13:52:00,
2013-08-08 10:07:00,72.0,69.0,30.06,SSE,168,0.0,-999.0,91,-99.99,,,0.00,230,weatherlink.com 1.10,2013-08-08 14:07:00,
2013-08-08 10:22:00,72.7,69.0,30.07,SE,128,0.0,-999.0,89,-99.99,,,0.00,229,weatherlink.com 1.10,2013-08-08 14:22:00,
2013-08-08 10:37:00,73.4,70.0,30.06,WSW,240,1.0,-999.0,88,-99.99,,,0.00,617,weatherlink.com 1.10,2013-08-08 14:37:00,
2013-08-08 10:53:00,74.7,70.0,30.06,SE,131,5.0,-999.0,84,-99.99,,,0.00,438,weatherlink.com 1.10,2013-08-08 14:53:00,
2013-08-08 11:08:00,75.6,70.0,30.05,SSW,212,0.0,-999.0,82,-99.99,,,0.00,232,weatherlink.com 1.10,2013-08-08 15:08:00,
2013-08-08 11:23:00,75.4,69.0,30.05,WSW,248,0.0,-999.0,79,-99.99,,,0.00,320,weatherlink.com 1.10,2013-08-08 15:23:00,
2013-08-08 11:38:00,75.8,69.0,30.04,SSE,161,0.0,-999.0,79,-99.99,,,0.00,928,weatherlink.com 1.10,2013-08-08 15:38:00,
2013-08-08 11:53:00,77.8,70.0,30.04,SW,232,2.0,-999.0,76,-99.99,,,0.00,937,weatherlink.com 1.10,2013-08-08 15:53:00,
2013-08-08 12:08:00,78.0,71.0,30.03,NW,318,0.0,-999.0,78,-99.99,,,0.00,962,weatherlink.com 1.10,2013-08-08 16:08:00,
2013-08-08 12:23:00,78.9,70.0,30.03,SSE,156,4.0,-999.0,75,-99.99,,,0.00,902,weatherlink.com 1.10,2013-08-08 16:23:00,
2013-08-08 12:38:00,78.9,70.0,30.03,SW,219,2.0,-999.0,74,-99.99,,,0.00,283,weatherlink.com 1.10,2013-08-08 16:38:00,
2013-08-08 12:53:00,78.5,71.0,30.03,South,182,5.0,-999.0,77,-99.99,,,0.00,320,weatherlink.com 1.10,2013-08-08 16:53:00,
2013-08-08 13:08:00,79.4,71.0,30.03,SSE,162,5.0,-999.0,76,-99.99,,,0.00,320,weatherlink.com 1.10,2013-08-08 17:08:00,
2013-08-08 13:23:00,79.3,70.0,30.03,SSW,204,0.0,-999.0,74,-99.99,,,0.00,953,weatherlink.com 1.10,2013-08-08 17:23:00,
2013-08-08 13:38:00,79.8,70.0,30.03,SW,232,3.0,-999.0,73,-99.99,,,0.00,918,weatherlink.com 1.10,2013-08-08 17:38:00,
2013-08-08 13:53:00,80.5,71.0,30.04,SSE,153,0.0,-999.0,73,-99.99,,,0.00,512,weatherlink.com 1.10,2013-08-08 17:53:00,
2013-08-08 14:09:00,80.2,71.0,30.04,SE,125,5.0,-999.0,73,-99.99,,,0.00,722,weatherlink.com 1.10,2013-08-08 18:09:00,
2013-08-08 14:24:00,80.1,70.0,30.04,West,277,0.0,-999.0,72,-99.99,,,0.00,489,weatherlink.com 1.10,2013-08-08 18:24:00,
2013-08-08 14:38:00,80.7,71.0,30.03,SSE,164,6.0,-999.0,72,-99.99,,,0.00,849,weatherlink.com 1.10,2013-08-08 18:38:00,
2013-08-08 14:53:00,81.2,71.0,30.03,South,190,1.0,-999.0,71,-99.99,,,0.00,840,weatherlink.com 1.10,2013-08-08 18:53:00,
2013-08-08 15:08:00,81.1,72.0,30.04,West,266,1.0,-999.0,73,-99.99,,,0.00,814,weatherlink.com 1.10,2013-08-08 19:08:00,
2013-08-08 15:23:00,80.6,71.0,30.03,SSE,155,0.0,-999.0,73,-99.99,,,0.00,236,weatherlink.com 1.10,2013-08-08 19:23:00,
2013-08-08 15:38:00,80.0,71.0,30.02,South,173,0.0,-999.0,75,-99.99,,,0.00,200,weatherlink.com 1.10,2013-08-08 19:38:00,
2013-08-08 15:54:00,79.9,71.0,30.02,WSW,248,0.0,-999.0,75,-99.99,,,0.00,700,weatherlink.com 1.10,2013-08-08 19:54:00,
2013-08-08 16:09:00,80.0,71.0,30.02,SW,235,0.0,-999.0,74,-99.99,,,0.00,160,weatherlink.com 1.10,2013-08-08 20:09:00,
2013-08-08 16:23:00,79.1,70.0,30.02,SW,223,0.0,-999.0,74,-99.99,,,0.00,214,weatherlink.com 1.10,2013-08-08 20:23:00,
2013-08-08 16:38:00,79.0,70.0,30.02,SSE,149,5.0,-999.0,75,-99.99,,,0.00,169,weatherlink.com 1.10,2013-08-08 20:38:00,
2013-08-08 16:53:00,79.1,71.0,30.01,WSW,240,2.0,-999.0,75,-99.99,,,0.00,360,weatherlink.com 1.10,2013-08-08 20:53:00,
2013-08-08 17:09:00,79.4,71.0,30.01,WNW,302,1.0,-999.0,76,-99.99,,,0.00,264,weatherlink.com 1.10,2013-08-08 21:09:00,
2013-08-08 17:24:00,79.2,71.0,30.01,SSE,153,5.0,-999.0,75,-99.99,,,0.00,121,weatherlink.com 1.10,2013-08-08 21:24:00,
2013-08-08 17:54:00,78.2,70.0,30.01,SE,142,0.0,-999.0,77,-99.99,,,0.00,63,weatherlink.com 1.10,2013-08-08 21:54:00,
2013-08-08 18:24:00,77.6,70.0,30.00,South,181,0.0,-999.0,77,-99.99,,,0.00,49,weatherlink.com 1.10,2013-08-08 22:24:00,
2013-08-08 18:39:00,77.2,70.0,30.00,SSE,148,0.0,-999.0,79,-99.99,,,0.00,49,weatherlink.com 1.10,2013-08-08 22:39:00,
2013-08-08 18:54:00,76.7,70.0,30.00,East,92,0.0,-999.0,79,-99.99,,,0.00,49,weatherlink.com 1.10,2013-08-08 22:54:00,
2013-08-08 19:09:00,75.9,70.0,30.01,SE,139,0.0,-999.0,81,-99.99,,,0.00,37,weatherlink.com 1.10,2013-08-08 23:09:00,
2013-08-08 19:54:00,73.9,69.0,30.02,SE,140,5.0,-999.0,84,-99.99,,,0.00,0,weatherlink.com 1.10,2013-08-08 23:54:00,
2013-08-08 20:09:00,73.3,69.0,30.02,SE,146,2.0,-999.0,86,-99.99,,,0.00,0,weatherlink.com 1.10,2013-08-09 00:09:00,
2013-08-08 20:24:00,72.9,69.0,30.03,SSE,148,0.0,-999.0,87,-99.99,,,0.00,0,weatherlink.com 1.10,2013-08-09 00:24:00,
2013-08-08 20:39:00,72.8,69.0,30.03,SE,131,0.0,-999.0,88,-99.99,,,0.00,0,weatherlink.com 1.10,2013-08-09 00:39:00,
2013-08-08 20:54:00,72.7,69.0,30.04,SE,130,0.0,-999.0,89,-99.99,,,0.00,0,weatherlink.com 1.10,2013-08-09 00:54:00,
2013-08-08 21:39:00,72.4,69.0,30.04,WSW,239,0.0,-999.0,90,-99.99,,,0.00,0,weatherlink.com 1.10,2013-08-09 01:39:00,
2013-08-08 22:24:00,72.2,70.0,30.03,SE,140,0.0,-999.0,91,-99.99,,,0.00,0,weatherlink.com 1.10,2013-08-09 02:24:00,
2013-08-08 22:39:00,72.1,70.0,30.03,ENE,70,0.0,-999.0,92,-99.99,,,0.00,0,weatherlink.com 1.10,2013-08-09 02:39:00,
2013-08-08 22:53:00,72.1,70.0,30.03,SSE,153,4.0,-999.0,92,-99.99,,,0.00,0,weatherlink.com 1.10,2013-08-09 02:53:00,
2013-08-08 23:23:00,72.1,70.0,30.03,South,178,1.0,-999.0,93,-99.99,,,0.00,0,weatherlink.com 1.10,2013-08-09 03:23:00,
2013-08-08 23:39:00,72.1,70.0,30.03,SSE,156,5.0,-999.0,93,-99.99,,,0.00,0,weatherlink.com 1.10,2013-08-09 03:39:00,
2013-08-08 23:54:00,72.2,70.0,30.02,SW,221,0.0,-999.0,93,-99.99,,,0.00,0,weatherlink.com 1.10,2013-08-09 03:54:00,